| time (UTC) | temp F | wind direction | speed MPH | gust MPH | rain 1hr in | rain 24hr in | rain mn in | humidity % | barometer mb |
| 20260503175537 | 74 | 276 | 4.0 | 13.0 | 0.00 | 0.00 | 0.00 | 17 | 1008.2 |
| 20260503175036 | 72 | 252 | 5.0 | 13.0 | 0.00 | 0.00 | 0.00 | 16 | 1008.3 |
| 20260503174536 | 72 | 189 | 4.0 | 10.0 | 0.00 | 0.00 | 0.00 | 18 | 1008.3 |
| 20260503174034 | 71 | 360 | 4.0 | 14.0 | 0.00 | 0.00 | 0.00 | 17 | 1008.5 |
| 20260503173533 | 71 | 360 | 4.0 | 16.0 | 0.00 | 0.00 | 0.00 | 18 | 1008.7 |
| 20260503173047 | 70 | 360 | 6.0 | 16.0 | 0.00 | 0.00 | 0.00 | 17 | 1008.7 |
| 20260503172530 | 70 | 360 | 6.0 | 12.0 | 0.00 | 0.00 | 0.00 | 18 | 1008.8 |
| 20260503172030 | 71 | 360 | 4.0 | 10.0 | 0.00 | 0.00 | 0.00 | 17 | 1008.9 |
| 20260503171536 | 71 | 360 | 4.0 | 14.0 | 0.00 | 0.00 | 0.00 | 18 | 1008.9 |
| 20260503171029 | 71 | 360 | 6.0 | 14.0 | 0.00 | 0.00 | 0.00 | 18 | 1009.0 |
| 20260503170531 | 71 | 360 | 4.0 | 14.0 | 0.00 | 0.00 | 0.00 | 17 | 1009.0 |
| 20260503151011 | 68 | 283 | 0.0 | 6.0 | 0.00 | 0.00 | 0.00 | 23 | 1010.1 |
| 20260503150510 | 68 | 219 | 2.0 | 6.0 | 0.00 | 0.00 | 0.00 | 23 | 1010.2 |
| 20260503131047 | 53 | 113 | 0.0 | 2.0 | 0.00 | 0.00 | 0.00 | 38 | 1011.1 |
| 20260503130543 | 52 | 105 | 0.0 | 3.0 | 0.00 | 0.00 | 0.00 | 40 | 1011.0 |
| 20260503110531 | 45 | 360 | 0.0 | 4.0 | 0.00 | 0.00 | 0.00 | 44 | 1011.0 |
| 20260503090119 | 43 | 360 | 0.0 | 2.0 | 0.00 | 0.00 | 0.00 | 37 | 1011.6 |
| 20260503081519 | 43 | 360 | 0.0 | 2.0 | 0.00 | 0.00 | 0.00 | 42 | 1011.8 |
| 20260503081011 | 44 | 360 | 0.0 | 0.0 | 0.00 | 0.00 | 0.00 | 43 | 1011.8 |
| 20260503080510 | 44 | 360 | 0.0 | 1.0 | 0.00 | 0.00 | 0.00 | 40 | 1011.9 |
| 20260503072510 | 47 | 360 | 0.0 | 2.0 | 0.00 | 0.00 | 0.00 | 36 | 1012.3 |
| 20260503072005 | 46 | 360 | 0.0 | 1.0 | 0.00 | 0.00 | 0.00 | 41 | 1012.3 |
| 20260503071505 | 46 | 360 | 0.0 | 1.0 | 0.00 | 0.00 | 0.00 | 38 | 1012.3 |
| 20260503071004 | 45 | 360 | 0.0 | 2.0 | 0.00 | 0.00 | 0.00 | 43 | 1012.3 |
| 20260503070502 | 46 | 360 | 0.0 | 2.0 | 0.00 | 0.00 | 0.00 | 35 | 1012.1 |
| 20260503060107 | 47 | 360 | 0.0 | 0.0 | 0.00 | 0.00 | 0.00 | 33 | 1012.5 |
| 20260503055052 | 47 | 360 | 0.0 | 2.0 | 0.00 | 0.00 | 0.00 | 33 | 1012.5 |
| 20260503054555 | 49 | 360 | 0.0 | 2.0 | 0.00 | 0.00 | 0.00 | 31 | 1012.5 |
| 20260503054053 | 49 | 360 | 0.0 | 2.0 | 0.00 | 0.00 | 0.00 | 31 | 1012.3 |
| 20260503053553 | 49 | 360 | 0.0 | 3.0 | 0.00 | 0.00 | 0.00 | 31 | 1012.3 |
| 20260503053052 | 49 | 360 | 0.0 | 3.0 | 0.00 | 0.00 | 0.00 | 31 | 1012.3 |
| 20260503052552 | 49 | 360 | 1.0 | 3.0 | 0.00 | 0.00 | 0.00 | 31 | 1012.3 |
| 20260503052052 | 49 | 360 | 0.0 | 2.0 | 0.00 | 0.00 | 0.00 | 31 | 1012.3 |
| 20260503051551 | 49 | 360 | 0.0 | 3.0 | 0.00 | 0.00 | 0.00 | 32 | 1012.4 |
| 20260503051051 | 49 | 360 | 0.0 | 3.0 | 0.00 | 0.00 | 0.00 | 32 | 1012.4 |
| 20260503050551 | 50 | 360 | 0.0 | 2.0 | 0.00 | 0.00 | 0.00 | 32 | 1012.4 |
| 20260503050051 | 51 | 360 | 0.0 | 2.0 | 0.00 | 0.00 | 0.00 | 30 | 1012.5 |
| 20260503045551 | 52 | 360 | 0.0 | 1.0 | 0.00 | 0.00 | 0.00 | 29 | 1012.6 |
| 20260503045051 | 53 | 360 | 0.0 | 2.0 | 0.00 | 0.00 | 0.00 | 28 | 1012.7 |
| 20260503044556 | 53 | 360 | 0.0 | 2.0 | 0.00 | 0.00 | 0.00 | 26 | 1012.7 |
| 20260503044050 | 53 | 360 | 0.0 | 2.0 | 0.00 | 0.00 | 0.00 | 25 | 1012.8 |
| 20260503043550 | 53 | 360 | 0.0 | 2.0 | 0.00 | 0.00 | 0.00 | 27 | 1012.7 |
| 20260503043056 | 53 | 360 | 0.0 | 4.0 | 0.00 | 0.00 | 0.00 | 25 | 1012.7 |
| 20260503042550 | 54 | 360 | 0.0 | 4.0 | 0.00 | 0.00 | 0.00 | 23 | 1012.7 |
| 20260503042050 | 54 | 360 | 1.0 | 3.0 | 0.00 | 0.00 | 0.00 | 23 | 1012.6 |
| 20260503041550 | 55 | 360 | 0.0 | 2.0 | 0.00 | 0.00 | 0.00 | 23 | 1012.6 |
| 20260503041049 | 55 | 360 | 1.0 | 2.0 | 0.00 | 0.00 | 0.00 | 22 | 1012.6 |
| 20260503040549 | 55 | 360 | 1.0 | 2.0 | 0.00 | 0.00 | 0.00 | 22 | 1012.7 |
| 20260503040051 | 56 | 360 | 1.0 | 3.0 | 0.00 | 0.00 | 0.00 | 21 | 1012.6 |
| 20260503035549 | 56 | 360 | 0.0 | 3.0 | 0.00 | 0.00 | 0.00 | 21 | 1012.6 |
| 20260503035049 | 57 | 144 | 0.0 | 2.0 | 0.00 | 0.00 | 0.00 | 21 | 1012.6 |
| 20260503034550 | 57 | 125 | 0.0 | 4.0 | 0.00 | 0.00 | 0.00 | 20 | 1012.7 |
| 20260503034049 | 58 | 121 | 1.0 | 4.0 | 0.00 | 0.00 | 0.00 | 19 | 1012.6 |
| 20260503033549 | 58 | 360 | 2.0 | 4.0 | 0.00 | 0.00 | 0.00 | 20 | 1012.6 |
| 20260503033102 | 58 | 360 | 1.0 | 3.0 | 0.00 | 0.00 | 0.00 | 20 | 1012.6 |
| 20260503032548 | 58 | 360 | 0.0 | 3.0 | 0.00 | 0.00 | 0.00 | 20 | 1012.5 |
| 20260503032048 | 58 | 360 | 0.0 | 3.0 | 0.00 | 0.00 | 0.00 | 20 | 1012.5 |
| 20260503031548 | 57 | 360 | 0.0 | 2.0 | 0.00 | 0.00 | 0.00 | 20 | 1012.4 |
| 20260503031048 | 58 | 83 | 0.0 | 1.0 | 0.00 | 0.00 | 0.00 | 20 | 1012.5 |
| 20260503030548 | 58 | 84 | 0.0 | 2.0 | 0.00 | 0.00 | 0.00 | 19 | 1012.5 |
| 20260503030047 | 59 | 84 | 0.0 | 2.0 | 0.00 | 0.00 | 0.00 | 19 | 1012.6 |
| 20260503025551 | 59 | 84 | 0.0 | 2.0 | 0.00 | 0.00 | 0.00 | 19 | 1012.5 |
| 20260503025047 | 59 | 46 | 0.0 | 1.0 | 0.00 | 0.00 | 0.00 | 19 | 1012.6 |
| 20260503024551 | 59 | 46 | 0.0 | 1.0 | 0.00 | 0.00 | 0.00 | 18 | 1012.6 |
| 20260503024048 | 60 | 46 | 0.0 | 1.0 | 0.00 | 0.00 | 0.00 | 18 | 1012.6 |
| 20260503023551 | 60 | 46 | 0.0 | 1.0 | 0.00 | 0.00 | 0.00 | 17 | 1012.6 |
| 20260503023057 | 61 | 46 | 0.0 | 1.0 | 0.00 | 0.00 | 0.00 | 15 | 1012.5 |
| 20260503022546 | 62 | 46 | 0.0 | 2.0 | 0.00 | 0.00 | 0.00 | 15 | 1012.4 |
| 20260503022046 | 62 | 360 | 1.0 | 3.0 | 0.00 | 0.00 | 0.00 | 14 | 1012.5 |
| 20260503021551 | 62 | 360 | 1.0 | 3.0 | 0.00 | 0.00 | 0.00 | 14 | 1012.4 |
| 20260503021048 | 63 | 360 | 1.0 | 2.0 | 0.00 | 0.00 | 0.00 | 15 | 1012.3 |
| 20260503020546 | 63 | 360 | 0.0 | 2.0 | 0.00 | 0.00 | 0.00 | 16 | 1012.3 |
| 20260503020046 | 64 | 63 | 1.0 | 2.0 | 0.00 | 0.00 | 0.00 | 14 | 1012.3 |
| 20260503015547 | 64 | 63 | 0.0 | 2.0 | 0.00 | 0.00 | 0.00 | 13 | 1012.3 |
| 20260503015045 | 64 | 63 | 0.0 | 3.0 | 0.00 | 0.00 | 0.00 | 12 | 1012.3 |
| 20260503014548 | 65 | 213 | 1.0 | 3.0 | 0.00 | 0.00 | 0.00 | 12 | 1012.2 |
| 20260503014049 | 65 | 202 | 1.0 | 4.0 | 0.00 | 0.00 | 0.00 | 12 | 1012.2 |
| 20260503013545 | 65 | 209 | 2.0 | 8.0 | 0.00 | 0.00 | 0.00 | 12 | 1012.2 |
| 20260503013045 | 66 | 360 | 2.0 | 8.0 | 0.00 | 0.00 | 0.00 | 12 | 1012.1 |
| 20260503012545 | 66 | 210 | 3.0 | 6.0 | 0.00 | 0.00 | 0.00 | 11 | 1012.1 |
| 20260503012045 | 67 | 192 | 1.0 | 5.0 | 0.00 | 0.00 | 0.00 | 12 | 1012.0 |
| 20260503011558 | 68 | 200 | 2.0 | 6.0 | 0.00 | 0.00 | 0.00 | 11 | 1012.1 |
| 20260503011048 | 68 | 208 | 3.0 | 6.0 | 0.00 | 0.00 | 0.00 | 11 | 1012.0 |
| 20260503010544 | 68 | 169 | 3.0 | 8.0 | 0.00 | 0.00 | 0.00 | 10 | 1011.9 |
| 20260503010052 | 68 | 360 | 4.0 | 9.0 | 0.00 | 0.00 | 0.00 | 10 | 1011.9 |
| 20260503005547 | 69 | 157 | 6.0 | 9.0 | 0.00 | 0.00 | 0.00 | 10 | 1011.9 |
| 20260503005044 | 69 | 360 | 3.0 | 8.0 | 0.00 | 0.00 | 0.00 | 10 | 1012.0 |
| 20260503004543 | 69 | 360 | 4.0 | 8.0 | 0.00 | 0.00 | 0.00 | 10 | 1012.1 |
| 20260503004043 | 69 | 360 | 4.0 | 6.0 | 0.00 | 0.00 | 0.00 | 10 | 1012.1 |
| 20260503003642 | 69 | 360 | 3.0 | 6.0 | 0.00 | 0.00 | 0.00 | 10 | 1012.0 |
| 20260503003057 | 70 | 94 | 3.0 | 5.0 | 0.00 | 0.00 | 0.00 | 10 | 1012.0 |
| 20260503002540 | 69 | 60 | 1.0 | 9.0 | 0.00 | 0.00 | 0.00 | 9 | 1012.0 |
| 20260503002040 | 70 | 50 | 4.0 | 9.0 | 0.00 | 0.00 | 0.00 | 10 | 1012.2 |
| 20260503001540 | 70 | 66 | 2.0 | 9.0 | 0.00 | 0.00 | 0.00 | 9 | 1012.2 |
| 20260503001039 | 70 | 88 | 5.0 | 12.0 | 0.00 | 0.00 | 0.00 | 9 | 1012.3 |
| 20260503000539 | 70 | 63 | 4.0 | 12.0 | 0.00 | 0.00 | 0.00 | 9 | 1012.2 |
| 20260503000057 | 71 | 100 | 2.0 | 6.0 | 0.00 | 0.00 | 0.00 | 9 | 1012.3 |
| 20260502235538 | 70 | 111 | 2.0 | 9.0 | 0.00 | 0.00 | 0.00 | 9 | 1012.3 |
| 20260502235037 | 71 | 88 | 3.0 | 9.0 | 0.00 | 0.00 | 0.00 | 9 | 1012.4 |
| 20260502234539 | 71 | 90 | 5.0 | 8.0 | 0.00 | 0.00 | 0.00 | 9 | 1012.4 |
| 20260502234037 | 71 | 55 | 2.0 | 9.0 | 0.00 | 0.00 | 0.00 | 9 | 1012.5 |
| 20260502233536 | 71 | 81 | 2.0 | 8.0 | 0.00 | 0.00 | 0.00 | 9 | 1012.5 |
| 20260502233038 | 71 | 80 | 2.0 | 10.0 | 0.00 | 0.00 | 0.00 | 9 | 1012.6 |
| 20260502232534 | 71 | 30 | 5.0 | 10.0 | 0.00 | 0.00 | 0.00 | 9 | 1012.5 |
| 20260502232033 | 71 | 73 | 3.0 | 11.0 | 0.00 | 0.00 | 0.00 | 9 | 1012.6 |
| 20260502231535 | 71 | 67 | 1.0 | 7.0 | 0.00 | 0.00 | 0.00 | 9 | 1012.7 |
| 20260502231033 | 71 | 118 | 2.0 | 11.0 | 0.00 | 0.00 | 0.00 | 10 | 1012.7 |
| 20260502230533 | 71 | 343 | 5.0 | 11.0 | 0.00 | 0.00 | 0.00 | 9 | 1012.8 |
| 20260502230032 | 71 | 45 | 2.0 | 9.0 | 0.00 | 0.00 | 0.00 | 9 | 1012.8 |
| 20260502225532 | 71 | 50 | 6.0 | 10.0 | 0.00 | 0.00 | 0.00 | 9 | 1012.9 |
| 20260502225032 | 71 | 44 | 6.0 | 10.0 | 0.00 | 0.00 | 0.00 | 9 | 1012.9 |
| 20260502224531 | 71 | 75 | 5.0 | 10.0 | 0.00 | 0.00 | 0.00 | 9 | 1012.8 |
| 20260502224030 | 71 | 65 | 3.0 | 10.0 | 0.00 | 0.00 | 0.00 | 9 | 1013.0 |
| 20260502223531 | 71 | 118 | 3.0 | 12.0 | 0.00 | 0.00 | 0.00 | 9 | 1013.0 |
| 20260502223030 | 71 | 65 | 5.0 | 12.0 | 0.00 | 0.00 | 0.00 | 9 | 1013.1 |
| 20260502222529 | 72 | 46 | 5.0 | 10.0 | 0.00 | 0.00 | 0.00 | 9 | 1013.1 |
| 20260502222028 | 72 | 96 | 6.0 | 10.0 | 0.00 | 0.00 | 0.00 | 9 | 1013.3 |
| 20260502221528 | 71 | 96 | 5.0 | 11.0 | 0.00 | 0.00 | 0.00 | 10 | 1013.3 |
| 20260502221030 | 71 | 70 | 6.0 | 11.0 | 0.00 | 0.00 | 0.00 | 9 | 1013.3 |
| 20260502220527 | 71 | 51 | 4.0 | 10.0 | 0.00 | 0.00 | 0.00 | 10 | 1013.4 |
| 20260502220030 | 71 | 83 | 6.0 | 10.0 | 0.00 | 0.00 | 0.00 | 10 | 1013.4 |
| 20260502215525 | 71 | 52 | 3.0 | 10.0 | 0.00 | 0.00 | 0.00 | 10 | 1013.6 |
| 20260502215024 | 71 | 65 | 5.0 | 10.0 | 0.00 | 0.00 | 0.00 | 10 | 1013.6 |
| 20260502214523 | 72 | 58 | 4.0 | 8.0 | 0.00 | 0.00 | 0.00 | 10 | 1013.7 |
| 20260502214022 | 71 | 123 | 2.0 | 10.0 | 0.00 | 0.00 | 0.00 | 10 | 1013.9 |
| 20260502213521 | 71 | 83 | 4.0 | 10.0 | 0.00 | 0.00 | 0.00 | 11 | 1014.0 |
| 20260502213025 | 71 | 94 | 5.0 | 10.0 | 0.00 | 0.00 | 0.00 | 12 | 1014.1 |
| 20260502212520 | 70 | 53 | 4.0 | 10.0 | 0.00 | 0.00 | 0.00 | 12 | 1014.2 |
| 20260502212020 | 70 | 360 | 2.0 | 13.0 | 0.00 | 0.00 | 0.00 | 11 | 1014.3 |
| 20260502211518 | 71 | 105 | 5.0 | 13.0 | 0.00 | 0.00 | 0.00 | 11 | 1014.3 |
| 20260502211017 | 71 | 59 | 7.0 | 14.0 | 0.00 | 0.00 | 0.00 | 13 | 1014.4 |
| 20260502210516 | 71 | 111 | 6.0 | 12.0 | 0.00 | 0.00 | 0.00 | 12 | 1014.5 |
| 20260502210016 | 72 | 89 | 2.0 | 10.0 | 0.00 | 0.00 | 0.00 | 14 | 1014.6 |
| 20260502205516 | 70 | 122 | 4.0 | 12.0 | 0.00 | 0.00 | 0.00 | 14 | 1014.8 |
| 20260502205015 | 70 | 112 | 5.0 | 12.0 | 0.00 | 0.00 | 0.00 | 13 | 1014.9 |
| 20260502204522 | 70 | 119 | 5.0 | 9.0 | 0.00 | 0.00 | 0.00 | 14 | 1014.9 |
| 20260502204014 | 71 | 101 | 1.0 | 8.0 | 0.00 | 0.00 | 0.00 | 13 | 1015.0 |
| 20260502203513 | 70 | 51 | 1.0 | 11.0 | 0.00 | 0.00 | 0.00 | 13 | 1015.1 |
| 20260502203016 | 70 | 77 | 5.0 | 11.0 | 0.00 | 0.00 | 0.00 | 13 | 1015.1 |
| 20260502202514 | 69 | 66 | 1.0 | 10.0 | 0.00 | 0.00 | 0.00 | 14 | 1015.1 |
| 20260502202012 | 70 | 40 | 5.0 | 10.0 | 0.00 | 0.00 | 0.00 | 14 | 1015.2 |
| 20260502201514 | 70 | 9 | 5.0 | 9.0 | 0.00 | 0.00 | 0.00 | 14 | 1015.2 |
| 20260502201014 | 70 | 10 | 2.0 | 9.0 | 0.00 | 0.00 | 0.00 | 14 | 1015.4 |
| 20260502200612 | 69 | 30 | 4.0 | 12.0 | 0.00 | 0.00 | 0.00 | 14 | 1015.4 |
| 20260502200010 | 69 | 88 | 6.0 | 12.0 | 0.00 | 0.00 | 0.00 | 14 | 1015.4 |
| 20260502195514 | 68 | 43 | 2.0 | 6.0 | 0.00 | 0.00 | 0.00 | 15 | 1015.5 |
| 20260502195009 | 70 | 67 | 2.0 | 8.0 | 0.00 | 0.00 | 0.00 | 15 | 1015.6 |
| 20260502194507 | 69 | 147 | 2.0 | 12.0 | 0.00 | 0.00 | 0.00 | 14 | 1015.8 |
| 20260502194009 | 68 | 92 | 5.0 | 13.0 | 0.00 | 0.00 | 0.00 | 15 | 1015.8 |
| 20260502193507 | 69 | 92 | 5.0 | 13.0 | 0.00 | 0.00 | 0.00 | 16 | 1015.8 |
| 20260502193006 | 68 | 360 | 3.0 | 12.0 | 0.00 | 0.00 | 0.00 | 15 | 1015.9 |
| 20260502192506 | 68 | 76 | 5.0 | 12.0 | 0.00 | 0.00 | 0.00 | 15 | 1016.0 |
| 20260502192008 | 70 | 26 | 3.0 | 8.0 | 0.00 | 0.00 | 0.00 | 17 | 1016.1 |
| 20260502191511 | 68 | 28 | 3.0 | 5.0 | 0.00 | 0.00 | 0.00 | 15 | 1016.2 |
| 20260502191004 | 68 | 12 | 1.0 | 9.0 | 0.00 | 0.00 | 0.00 | 15 | 1016.3 |
| 20260502190503 | 69 | 360 | 2.0 | 9.0 | 0.00 | 0.00 | 0.00 | 16 | 1016.4 |
| 20260502190005 | 67 | 360 | 2.0 | 6.0 | 0.00 | 0.00 | 0.00 | 15 | 1016.5 |
| 20260502185502 | 67 | 60 | 3.0 | 8.0 | 0.00 | 0.00 | 0.00 | 15 | 1016.7 |
| 20260502185100 | 68 | 128 | 4.0 | 8.0 | 0.00 | 0.00 | 0.00 | 15 | 1016.6 |
| 20260502184600 | 69 | 265 | 2.0 | 4.0 | 0.00 | 0.00 | 0.00 | 16 | 1016.7 |
| 20260502184059 | 68 | 106 | 1.0 | 4.0 | 0.00 | 0.00 | 0.00 | 16 | 1016.8 |
| 20260502183559 | 67 | 360 | 1.0 | 10.0 | 0.00 | 0.00 | 0.00 | 17 | 1016.8 |
| 20260502183057 | 66 | 63 | 2.0 | 10.0 | 0.00 | 0.00 | 0.00 | 16 | 1017.0 |
| 20260502182556 | 67 | 57 | 1.0 | 4.0 | 0.00 | 0.00 | 0.00 | 16 | 1017.0 |
| 20260502182056 | 68 | 242 | 1.0 | 4.0 | 0.00 | 0.00 | 0.00 | 20 | 1017.1 |
| 20260502181555 | 68 | 211 | 1.0 | 5.0 | 0.00 | 0.00 | 0.00 | 16 | 1017.2 |
| 20260502181054 | 66 | 22 | 2.0 | 11.0 | 0.00 | 0.00 | 0.00 | 18 | 1017.2 |
| 20260502180553 | 66 | 9 | 5.0 | 11.0 | 0.00 | 0.00 | 0.00 | 17 | 1017.4 |